Location: Unspecified
(0.0000°N, 0.0000°E)
Time: 03:26:19
(UTC+00:00)

Kosmos-2218 - Visible Passes

Search period start: 19 June 2024 00:00
Search period end: 29 June 2024 00:00
Orbit: 965 x 1012 km, 82.9° (Epoch: 18 June)

Date Brightness Start Highest point End Pass type
(mag) Time Alt. Az. Time Alt. Az. Time Alt. Az.
19 Jun 7.6 03:36:00 23° NNW 03:36:00 23° NNW 03:38:22 10° NNW visible
20 Jun 8.5 02:20:45 14° NE 02:20:45 14° NE 02:21:42 10° NNE visible
20 Jun 8.1 04:05:44 11° NW 04:05:44 11° NW 04:06:09 10° NW visible
21 Jun 8.2 02:50:26 18° N 02:50:26 18° N 02:51:51 10° N visible
22 Jun 8.2 03:20:06 14° NNW 03:20:06 14° NNW 03:20:51 10° NNW visible
24 Jun 8.7 02:34:21 10° N 02:34:21 10° N 02:34:25 10° N visible
